Weather History for Ramona, CA

Change the Weather History Date:

Thursday, January 31, 2013

  Actual Average Record
Temperature  
Mean Temperature 54 °F 50 °F  
Max Temperature 75 °F 65 °F 88 °F (2003)
Min Temperature 32 °F 36 °F 25 °F (2012)
Degree Days  
Heating Degree Days 11 15  
Month to date heating degree days 510 465  
Since 1 July heating degree days 1312 1347  
Cooling Degree Days 0 0  
Month to date cooling degree days 0 1  
Year to date cooling degree days 0 1  
Growing Degree Days 3 (Base 50)    
Moisture  
Dew Point 34 °F    
Average Humidity 61    
Maximum Humidity 100    
Minimum Humidity 22    
Precipitation  
Precipitation 0.00 in 0.11 in 1.73 in (1979)
Month to date precipitation 1.60 3.32  
Year to date precipitation 1.60 3.32  
Since 1 July precipitation 5.24 8.03  
Snow  
Snow 0.00 in - - ()
Month to date snowfall 0.0  
Year to date snowfall 0.0  
Since 1 July snowfall 0.0  
Snow Depth 0.00 in    
Sea Level Pressure  
Sea Level Pressure 30.15 in    
Wind  
Wind Speed 3 mph (East)    
Max Wind Speed 16 mph    
Max Gust Speed 20 mph    
Visibility 10 miles    
Events      
T = Trace of Precipitation, MM = Missing Value Source: NWS Daily Summary

Daily Weather History Graph

Daily Weather History Graph

Search for Another Location

Airport:

Trip Planner

Search our weather history database for the weather conditions in past years. The results will help you decide how hot, cold, wet, or windy it might be!

Date:

Astronomy

Jan. 31, 2013 Rise Set
Actual Time 6:43 AM PST 5:19 PM PST
Civil Twilight 6:17 AM PST 5:45 PM PST
Nautical Twilight 5:47 AM PST 6:14 PM PST
Astronomical Twilight 5:18 AM PST 6:44 PM PST
Moon 10:06 PM PST (1/31) 9:03 AM PST (1/31)
Length of Visible Light 11h 27m
Length of Day
10h 35m
Waning Gibbous, 79% of the Moon is Illuminated
Jan 31
Waning Gibbous
Feb 3
Last Quarter
Feb 9
New
Feb 17
First Quarter
Feb 25
Full

Hourly Weather History & Observations

Time (PST) Temp. Windchill Dew Point Humidity Pressure Visibility Wind Dir Wind Speed Gust Speed Precip Events Conditions
12:53 AM 37.0 °F - 35.1 °F 93% 30.23 in 5.0 mi Calm Calm - N/A   Clear
1:53 AM 37.0 °F - 35.1 °F 93% 30.20 in 10.0 mi Calm Calm - N/A   Clear
2:53 AM 36.0 °F - 35.1 °F 97% 30.18 in 9.0 mi Calm Calm - N/A   Clear
3:53 AM 35.1 °F - 34.0 °F 96% 30.17 in 10.0 mi Calm Calm - N/A   Clear
4:53 AM 35.1 °F 32.2 °F 33.1 °F 92% 30.17 in 8.0 mi East 3.5 mph - N/A   Clear
5:53 AM 35.1 °F - 33.1 °F 92% 30.17 in 10.0 mi Calm Calm - N/A   Clear
6:53 AM 33.1 °F - 30.9 °F 92% 30.18 in 10.0 mi Calm Calm - N/A   Clear
7:53 AM 37.9 °F 35.5 °F 35.1 °F 89% 30.19 in 10.0 mi ESE 3.5 mph - N/A   Clear
8:53 AM 50.0 °F - 41.0 °F 71% 30.19 in 10.0 mi Calm Calm - N/A   Clear
9:53 AM 62.1 °F - 37.0 °F 39% 30.21 in 10.0 mi Calm Calm - N/A   Clear
10:53 AM 69.1 °F - 37.0 °F 31% 30.18 in 10.0 mi ENE 3.5 mph - N/A   Clear
11:53 AM 72.0 °F - 33.1 °F 24% 30.15 in 10.0 mi East 10.4 mph - N/A   Clear
12:53 PM 73.0 °F - 33.1 °F 23% 30.12 in 10.0 mi ENE 12.7 mph - N/A   Clear
1:53 PM 73.0 °F - 32.0 °F 22% 30.10 in 10.0 mi East 10.4 mph - N/A   Clear
2:53 PM 73.9 °F - 32.0 °F 21% 30.09 in 10.0 mi East 10.4 mph 19.6 mph N/A   Clear
3:53 PM 72.0 °F - 30.9 °F 22% 30.10 in 10.0 mi East 12.7 mph - N/A   Clear
4:53 PM 69.1 °F - 30.0 °F 23% 30.11 in 10.0 mi East 9.2 mph - N/A   Clear
5:53 PM 61.0 °F - 33.1 °F 35% 30.13 in 10.0 mi Calm Calm - N/A   Clear
6:53 PM 51.1 °F - 35.1 °F 54% 30.14 in 10.0 mi Calm Calm - N/A   Clear
7:22 PM 50.0 °F - 37.4 °F 62% 30.14 in 10.0 mi Calm Calm - N/A   Clear
7:53 PM 51.1 °F - 36.0 °F 56% 30.15 in 10.0 mi Variable 3.5 mph - N/A   Clear
8:53 PM 46.0 °F 40.2 °F 36.0 °F 68% 30.14 in 10.0 mi NE 12.7 mph 26.5 mph N/A   Clear
9:53 PM 46.0 °F 44.8 °F 35.1 °F 66% 30.13 in 10.0 mi Variable 3.5 mph - N/A   Clear
10:42 PM 42.8 °F 37.5 °F 35.6 °F 76% 30.14 in 10.0 mi SE 9.2 mph 43.7 mph N/A   Squalls
10:53 PM 46.0 °F - 35.1 °F 66% 30.12 in 10.0 mi North - - N/A   Clear
11:53 PM 41.0 °F - 34.0 °F 76% 30.12 in 10.0 mi North - - N/A   Clear